GW4262 Weather Reports


time (UTC)temp
C
wind
direction
speed
KPH
gust
KPH
rain 1hr
cm
rain 24hr
cm
rain mn
cm
humidity
%
barometer
mb
20260906043031 20 312 0.0 1.6 0.00 0.00 0.00 92 1014.7
20260906041531 20 312 0.0 1.6 0.00 0.00 0.00 91 1014.5
20260906041428 20 236 0.0 0.0 0.00 0.00 0.00 91 1014.7
20260906041422 20 236 0.0 0.0 0.00 0.00 0.00 91 1014.9
20260906033031 20 236 0.0 0.0 0.00 0.00 0.00 91 1015.1
20260906031514 20 236 0.0 0.0 0.00 0.00 0.00 90 1015.2
20260906030018 20 236 0.0 0.0 0.00 0.00 0.00 90 1015.1
20260906024525 20 236 0.0 0.0 0.00 0.00 0.00 89 1015.0
20260906023005 20 236 0.0 0.0 0.00 0.00 0.00 88 1014.7
20260906021508 21 236 0.0 1.6 0.00 0.00 0.00 86 1014.7
20260906020015 20 237 0.0 3.2 0.00 0.00 0.00 87 1014.6
20260906014522 20 241 0.0 0.0 0.00 0.00 0.00 90 1014.5
20260906013027 21 241 0.0 0.0 0.00 0.00 0.00 89 1014.5
20260906011508 21 241 0.0 0.0 0.00 0.00 0.00 89 1014.2
20260906010015 21 241 0.0 0.0 0.00 0.00 0.00 89 1014.0
20260906004516 22 241 0.0 0.0 0.00 0.00 0.00 88 1014.0
20260906003024 22 241 0.0 0.0 0.00 0.00 0.00 89 1013.8
20260906001529 23 241 0.0 0.0 0.00 0.00 0.00 89 1013.7
20260906000013 23 241 0.0 1.6 0.00 0.00 0.00 88 1013.5
20260905234524 24 241 0.0 3.2 0.00 0.00 0.00 88 1013.6
20260905233026 25 241 0.0 3.2 0.00 0.00 0.00 87 1013.6
20260905231528 25 241 0.0 3.2 0.00 0.00 0.00 85 1013.5
20260905230027 26 241 0.0 3.2 0.00 0.00 0.00 83 1013.3
20260905224512 26 241 0.0 0.0 0.00 0.00 0.00 81 1013.1
20260905223016 27 241 0.0 3.2 0.00 0.00 0.00 78 1013.3
20260905221523 27 241 0.0 3.2 0.00 0.00 0.00 75 1013.3
20260905220029 28 241 0.0 3.2 0.00 0.00 0.00 71 1013.2
20260905214530 28 280 0.0 3.2 0.00 0.00 0.00 73 1013.3
20260905213015 27 275 0.0 3.2 0.00 0.00 0.00 69 1013.2
20260905211519 27 219 1.6 3.2 0.00 0.00 0.00 70 1013.3
20260905210043 27 252 1.6 3.2 0.00 0.00 0.00 71 1013.5
20260905204510 27 250 0.0 4.8 0.00 0.00 0.00 73 1013.7
20260905203011 27 261 1.6 11.3 0.00 0.00 0.00 69 1013.9
20260905201520 27 256 1.6 4.8 0.00 0.00 0.00 72 1014.0
20260905200038 26 215 1.6 4.8 0.00 0.00 0.00 72 1014.1
20260905194536 26 241 1.6 3.2 0.00 0.00 0.00 77 1014.2
20260905193020 26 223 0.0 3.2 0.00 0.00 0.00 78 1014.4
20260905191513 26 144 1.6 6.4 0.00 0.00 0.00 74 1014.2
20260905190021 26 175 1.6 8.0 0.00 0.00 0.00 72 1014.1
20260905184535 26 360 1.6 11.3 0.00 0.00 0.00 75 1014.0
20260905183036 26 360 0.0 3.2 0.00 0.00 0.00 79 1014.0
20260905181514 27 360 0.0 3.2 0.00 0.00 0.00 73 1013.8
20260905180032 28 360 0.0 3.2 0.00 0.00 0.00 68 1014.7
20260905174535 30 360 0.0 6.4 0.00 0.00 0.00 67 1015.6
20260905173035 31 13 0.0 3.2 0.00 0.00 0.00 62 1015.7
20260905171529 32 9 0.0 3.2 0.00 0.00 0.00 57 1015.5
20260905170032 33 360 0.0 3.2 0.00 0.00 0.00 61 1015.6
20260905164526 33 250 1.6 4.8 0.00 0.00 0.00 57 1015.6
20260905163027 32 287 0.0 0.0 0.00 0.00 0.00 67 1015.7
20260905161532 32 287 0.0 3.2 0.00 0.00 0.00 68 1015.8
20260905160047 32 234 1.6 4.8 0.00 0.00 0.00 60 1016.0
20260905154519 31 238 1.6 9.7 0.00 0.00 0.00 63 1016.1
20260905153025 32 296 1.6 6.4 0.00 0.00 0.00 63 1015.9
20260905151533 32 218 1.6 6.4 0.00 0.00 0.00 62 1015.6
20260905150019 30 231 1.6 6.4 0.00 0.00 0.00 68 1015.7
20260905144536 30 232 0.0 4.8 0.00 0.00 0.00 70 1015.7
20260905143025 29 78 0.0 3.2 0.00 0.00 0.00 76 1015.8
20260905141504 28 136 0.0 3.2 0.00 0.00 0.00 83 1015.8
20260905140031 27 189 0.0 3.2 0.00 0.00 0.00 85 1015.8
20260905134533 26 199 0.0 1.6 0.00 0.00 0.00 91 1015.8
20260905133024 25 176 0.0 0.0 0.00 0.00 0.00 94 1015.9
20260905131542 23 176 0.0 3.2 0.00 0.00 0.00 95 1016.0
20260905130007 23 242 0.0 0.0 0.00 0.00 0.00 96 1016.2
20260905124510 22 242 0.0 0.0 0.00 0.00 0.00 96 1016.2
20260905123016 21 242 0.0 0.0 0.00 0.00 0.00 95 1016.1
20260905121524 21 242 0.0 0.0 0.00 0.00 0.00 95 1016.1
20260905120030 20 242 0.0 0.0 0.00 0.00 0.00 95 1016.0
20260905114507 20 242 0.0 0.0 0.00 0.00 0.00 95 1015.9
20260905113018 20 242 0.0 0.0 0.00 0.00 0.00 95 1015.9
20260905111526 20 242 0.0 0.0 0.00 0.00 0.00 95 1015.5
20260905110030 20 242 0.0 0.0 0.00 0.00 0.00 95 1015.3
20260905105058 20 242 0.0 0.0 0.00 0.00 0.00 95 1015.0
20260905105051 20 242 0.0 0.0 0.00 0.00 0.00 95 1015.0
20260905101521 20 242 0.0 0.0 0.00 0.00 0.00 95 1015.0
20260905100026 20 242 0.0 0.0 0.00 0.00 0.00 95 1014.9
20260905094530 21 242 0.0 0.0 0.00 0.00 0.00 95 1015.0
20260905093009 21 242 0.0 0.0 0.00 0.00 0.00 95 1014.9
20260905091516 21 242 0.0 0.0 0.00 0.00 0.00 95 1014.9
20260905090024 21 242 0.0 0.0 0.00 0.00 0.00 95 1014.9
20260905084531 21 242 0.0 0.0 0.00 0.00 0.00 95 1015.0
20260905083007 21 242 0.0 0.0 0.00 0.00 0.00 94 1015.2
20260905081516 21 242 0.0 0.0 0.00 0.00 0.00 94 1015.4
20260905080022 21 242 0.0 0.0 0.00 0.00 0.00 94 1015.5
20260905074537 21 242 0.0 0.0 0.00 0.00 0.00 94 1015.8
20260905073007 21 242 0.0 0.0 0.00 0.00 0.00 94 1015.9
20260905071511 21 242 0.0 0.0 0.00 0.00 0.00 94 1015.7
20260905070018 21 242 0.0 0.0 0.00 0.00 0.00 94 1016.0
20260905064525 21 242 0.0 0.0 0.00 0.00 0.00 94 1016.1
20260905063030 21 242 0.0 0.0 0.00 0.00 0.00 94 1016.2
20260905061508 21 242 0.0 0.0 0.00 0.00 0.00 94 1016.4
20260905060016 22 242 0.0 0.0 0.00 0.00 0.00 93 1016.7
20260905054524 22 242 0.0 0.0 0.00 0.00 0.00 93 1016.8
20260905053034 22 242 0.0 0.0 0.00 0.00 0.00 93 1016.9
20260905051531 22 242 0.0 0.0 0.00 0.00 0.00 93 1017.1
20260905050016 22 242 0.0 0.0 0.00 0.00 0.00 93 1017.0
20260905044521 22 242 0.0 0.0 0.00 0.00 0.00 93 1016.9